TimeMST,TemperatureF,Dew PointF,Humidity,Sea Level PressureIn,VisibilityMPH,Wind Direction,Wind SpeedMPH,Gust SpeedMPH,PrecipitationIn,Events,Conditions,WindDirDegrees,DateUTC
12:15 AM,23.0,15.8,74,30.46,10.0,Calm,Calm,-,N/A,,Clear,0,2012-11-20 07:15:00
12:35 AM,19.4,10.4,68,30.46,10.0,Calm,Calm,-,N/A,,Clear,0,2012-11-20 07:35:00
12:55 AM,19.4,14.0,80,30.45,10.0,Calm,Calm,-,N/A,,Clear,0,2012-11-20 07:55:00
1:15 AM,21.2,12.2,68,30.45,8.0,Calm,Calm,-,N/A,,Clear,0,2012-11-20 08:15:00
1:35 AM,21.2,14.0,74,30.46,10.0,Calm,Calm,-,N/A,,Clear,0,2012-11-20 08:35:00
1:55 AM,19.4,12.2,74,30.46,10.0,Calm,Calm,-,N/A,,Clear,0,2012-11-20 08:55:00
2:15 AM,17.6,12.2,79,30.46,10.0,Calm,Calm,-,N/A,,Clear,0,2012-11-20 09:15:00
2:55 AM,17.6,12.2,79,30.46,10.0,NNW,3.5,-,N/A,,Clear,340,2012-11-20 09:55:00
3:15 AM,17.6,10.4,73,30.46,10.0,Calm,Calm,-,N/A,,Clear,0,2012-11-20 10:15:00
3:35 AM,15.8,10.4,79,30.46,10.0,Calm,Calm,-,N/A,,Clear,0,2012-11-20 10:35:00
3:55 AM,15.8,10.4,79,30.46,10.0,Calm,Calm,-,N/A,,Clear,0,2012-11-20 10:55:00
4:15 AM,15.8,10.4,79,30.46,10.0,Calm,Calm,-,N/A,,Clear,0,2012-11-20 11:15:00
4:35 AM,17.6,12.2,79,30.47,10.0,Calm,Calm,-,N/A,,Clear,0,2012-11-20 11:35:00
4:55 AM,12.2,6.8,79,30.47,10.0,Calm,Calm,-,N/A,,Clear,0,2012-11-20 11:55:00
5:15 AM,12.2,10.4,92,30.48,10.0,ENE,3.5,-,N/A,,Clear,60,2012-11-20 12:15:00
5:35 AM,15.8,10.4,79,30.48,10.0,Calm,Calm,-,N/A,,Clear,0,2012-11-20 12:35:00
5:55 AM,15.8,10.4,79,30.48,10.0,Calm,Calm,-,N/A,,Clear,0,2012-11-20 12:55:00
6:15 AM,14.0,8.6,79,30.49,10.0,Calm,Calm,-,N/A,,Clear,0,2012-11-20 13:15:00
6:35 AM,12.2,8.6,85,30.49,10.0,Calm,Calm,-,N/A,,Clear,0,2012-11-20 13:35:00
6:55 AM,12.2,8.6,85,30.49,10.0,Calm,Calm,-,N/A,,Clear,0,2012-11-20 13:55:00
7:15 AM,14.0,10.4,86,30.49,10.0,Calm,Calm,-,N/A,,Clear,0,2012-11-20 14:15:00
8:35 AM,-9999,-9999,N/A,30.51,-9999.0,Calm,Calm,-,N/A,,Unknown,0,2012-11-20 15:35:00
9:35 AM,26.6,15.8,64,30.50,10.0,Calm,Calm,-,N/A,,Unknown,0,2012-11-20 16:35:00
9:55 AM,28.4,19.4,69,30.50,10.0,Calm,Calm,-,N/A,,Clear,0,2012-11-20 16:55:00
10:35 AM,33.8,17.6,52,30.49,10.0,Calm,Calm,-,N/A,,Clear,0,2012-11-20 17:35:00
11:15 AM,35.6,17.6,48,30.46,10.0,Calm,Calm,-,N/A,,Clear,0,2012-11-20 18:15:00
11:35 AM,37.4,19.4,48,30.45,10.0,Calm,Calm,-,N/A,,Clear,0,2012-11-20 18:35:00
11:55 AM,39.2,19.4,45,30.44,10.0,Calm,Calm,-,N/A,,Clear,0,2012-11-20 18:55:00
12:15 PM,42.8,19.4,39,30.42,10.0,Calm,Calm,-,N/A,,Clear,0,2012-11-20 19:15:00
12:55 PM,44.6,19.4,37,30.40,10.0,Calm,Calm,-,N/A,,Clear,0,2012-11-20 19:55:00
1:15 PM,44.6,17.6,34,30.38,10.0,Calm,Calm,-,N/A,,Clear,0,2012-11-20 20:15:00
1:35 PM,46.4,15.8,29,30.37,10.0,ESE,3.5,-,N/A,,Clear,120,2012-11-20 20:35:00
1:55 PM,48.2,15.8,27,30.36,10.0,Calm,Calm,-,N/A,,Clear,0,2012-11-20 20:55:00
2:15 PM,50.0,15.8,26,30.34,10.0,Calm,Calm,-,N/A,,Clear,0,2012-11-20 21:15:00
2:35 PM,48.2,14.0,25,30.34,10.0,Calm,Calm,-,N/A,,Clear,0,2012-11-20 21:35:00
2:55 PM,48.2,14.0,25,30.33,10.0,Calm,Calm,-,N/A,,Clear,0,2012-11-20 21:55:00
3:35 PM,50.0,12.2,22,30.32,10.0,SW,3.5,-,N/A,,Clear,230,2012-11-20 22:35:00
3:55 PM,50.0,15.8,26,30.32,10.0,Calm,Calm,-,N/A,,Clear,0,2012-11-20 22:55:00
4:15 PM,50.0,15.8,26,30.31,10.0,Calm,Calm,-,N/A,,Clear,0,2012-11-20 23:15:00
4:35 PM,48.2,14.0,25,30.31,10.0,SW,3.5,-,N/A,,Clear,230,2012-11-20 23:35:00
4:55 PM,48.2,12.2,24,30.31,10.0,SW,3.5,-,N/A,,Clear,230,2012-11-20 23:55:00
5:15 PM,39.2,12.2,33,30.31,10.0,Calm,Calm,-,N/A,,Clear,0,2012-11-21 00:15:00
5:35 PM,41.0,15.8,36,30.32,10.0,NNW,3.5,-,N/A,,Clear,340,2012-11-21 00:35:00
5:55 PM,39.2,15.8,39,30.33,10.0,NNW,6.9,-,N/A,,Clear,330,2012-11-21 00:55:00
6:15 PM,37.4,12.2,36,30.34,10.0,NNW,5.8,-,N/A,,Clear,340,2012-11-21 01:15:00
6:35 PM,33.8,12.2,41,30.34,10.0,Calm,Calm,-,N/A,,Clear,0,2012-11-21 01:35:00
6:55 PM,33.8,15.8,48,30.35,10.0,Calm,Calm,-,N/A,,Clear,0,2012-11-21 01:55:00
7:15 PM,33.8,19.4,56,30.36,10.0,North,5.8,-,N/A,,Clear,350,2012-11-21 02:15:00
7:35 PM,30.2,12.2,47,30.36,10.0,ENE,3.5,-,N/A,,Clear,60,2012-11-21 02:35:00
7:55 PM,30.2,15.8,55,30.36,10.0,NE,3.5,-,N/A,,Clear,40,2012-11-21 02:55:00
8:15 PM,28.4,14.0,55,30.36,10.0,Calm,Calm,-,N/A,,Clear,0,2012-11-21 03:15:00
8:35 PM,26.6,12.2,55,30.37,10.0,Calm,Calm,-,N/A,,Clear,0,2012-11-21 03:35:00
8:55 PM,24.8,12.2,59,30.37,10.0,Calm,Calm,-,N/A,,Clear,0,2012-11-21 03:55:00
9:15 PM,26.6,12.2,55,30.37,10.0,Calm,Calm,-,N/A,,Clear,0,2012-11-21 04:15:00
9:35 PM,26.6,12.2,55,30.38,10.0,Calm,Calm,-,N/A,,Clear,0,2012-11-21 04:35:00
9:55 PM,26.6,12.2,55,30.38,10.0,Calm,Calm,-,N/A,,Clear,0,2012-11-21 04:55:00
10:15 PM,24.8,12.2,59,30.38,10.0,Calm,Calm,-,N/A,,Clear,0,2012-11-21 05:15:00
10:35 PM,21.2,8.6,58,30.39,10.0,Calm,Calm,-,N/A,,Clear,0,2012-11-21 05:35:00
10:55 PM,21.2,10.4,63,30.38,10.0,Calm,Calm,-,N/A,,Clear,0,2012-11-21 05:55:00
11:15 PM,23.0,12.2,63,30.38,10.0,Calm,Calm,-,N/A,,Clear,0,2012-11-21 06:15:00
11:35 PM,21.2,10.4,63,30.38,10.0,Calm,Calm,-,N/A,,Clear,0,2012-11-21 06:35:00
11:55 PM,21.2,12.2,68,30.38,8.0,Calm,Calm,-,N/A,,Clear,0,2012-11-21 06:55:00